Weather History for Wellsville, NY

Change the Weather History Date:

Saturday, January 18, 2014

  Actual Average (KBFD) Record (KBFD)
Temperature  
Mean Temperature 20 °F 21 °F  
Max Temperature 28 °F 29 °F 56 °F (1973)
Min Temperature 10 °F 13 °F -19 °F (1976)
Degree Days  
Heating Degree Days 45 38  
Month to date heating degree days 684  
Since 1 July heating degree days 3740  
Cooling Degree Days 0 0  
Month to date cooling degree days 0  
Year to date cooling degree days 0  
Moisture  
Dew Point 14 °F    
Average Humidity 80    
Maximum Humidity 93    
Minimum Humidity 68    
Precipitation  
Precipitation 0.07 in 0.10 in 1.21 in (1999)
Month to date precipitation 1.96  
Year to date precipitation 1.96  
Sea Level Pressure  
Sea Level Pressure 29.79 in    
Wind  
Wind Speed 8 mph (West)    
Max Wind Speed 18 mph    
Max Gust Speed 24 mph    
Visibility 4 miles    
Events Fog , Snow    
T = Trace of Precipitation, MM = Missing Value Source: NWS Daily Summary

Daily Weather History Graph

Daily Weather History Graph

Search for Another Location

Airport:

Trip Planner

Search our weather history database for the weather conditions in past years. The results will help you decide how hot, cold, wet, or windy it might be!

Date:

Astronomy

Jan. 18, 2014 Rise Set
Actual Time 7:36 AM EST 5:08 PM EST
Civil Twilight 7:05 AM EST 5:39 PM EST
Nautical Twilight 6:31 AM EST 6:13 PM EST
Astronomical Twilight 5:57 AM EST 6:47 PM EST
Moon 7:52 PM EST (1/18) 8:31 AM EST (1/18)
Length of Visible Light 10h 34m
Length of Day
9h 32m
Waning Gibbous, 94% of the Moon is Illuminated
Jan 18
Waning Gibbous
Jan 24
Last Quarter
Jan 30
New
Feb 6
First Quarter
Feb 14
Full

Hourly Weather History & Observations

Time (EST) Temp. Windchill Dew Point Humidity Pressure Visibility Wind Dir Wind Speed Gust Speed Precip Events Conditions
12:06 AM 28.4 °F 23.3 °F 26.6 °F 93% 29.74 in 0.2 mi SSW 4.6 mph - 0.03 in Fog , Snow Heavy Snow
12:19 AM 28.4 °F 24.6 °F 26.6 °F 93% 29.74 in 0.8 mi Variable 3.5 mph - 0.05 in Snow Light Snow
12:35 AM 28.4 °F 23.3 °F 26.6 °F 93% 29.74 in 1.0 mi SSE 4.6 mph - 0.06 in Snow Light Snow
12:47 AM 28.4 °F 23.3 °F 26.6 °F 93% 29.73 in 1.8 mi South 4.6 mph - 0.06 in Snow Light Snow
12:54 AM 28.4 °F 22.2 °F 26.6 °F 93% 29.73 in 2.5 mi South 5.8 mph - 0.06 in Snow Light Snow
12:56 AM 28.9 °F 23.9 °F 26.1 °F 89% 29.80 in 3.0 mi SSW 4.6 mph - 0.06 in Snow Light Snow
1:08 AM 28.4 °F 22.2 °F 24.8 °F 86% 29.74 in 3.0 mi West 5.8 mph - 0.00 in Snow Light Snow
1:20 AM 28.4 °F 23.3 °F 24.8 °F 86% 29.74 in 5.0 mi West 4.6 mph - 0.00 in Snow Light Snow
1:35 AM 28.4 °F 19.1 °F 24.8 °F 86% 29.74 in 2.5 mi West 10.4 mph 16.1 mph 0.00 in Snow Light Snow
1:43 AM 28.4 °F 21.2 °F 24.8 °F 86% 29.74 in 3.0 mi West 6.9 mph - 0.00 in Snow Light Snow
1:47 AM 28.4 °F 20.4 °F 24.8 °F 86% 29.74 in 2.5 mi West 8.1 mph - 0.00 in Snow Light Snow
1:56 AM 28.0 °F 20.8 °F 24.1 °F 85% 29.80 in 2.0 mi West 6.9 mph - 0.00 in Snow Light Snow
2:06 AM 28.4 °F 20.4 °F 24.8 °F 86% 29.74 in 3.0 mi West 8.1 mph - 0.00 in Snow Light Snow
2:14 AM 28.4 °F 21.2 °F 24.8 °F 86% 29.74 in 2.5 mi West 6.9 mph - 0.01 in Snow Light Snow
2:22 AM 26.6 °F 21.2 °F 24.8 °F 93% 29.73 in 4.0 mi West 4.6 mph - 0.01 in Snow Light Snow
2:56 AM 27.0 °F 20.5 °F 23.0 °F 85% 29.81 in 7.0 mi WSW 5.8 mph - 0.01 in Snow Light Snow
3:14 AM 26.6 °F 19.1 °F 23.0 °F 86% 29.73 in 8.0 mi WSW 6.9 mph - 0.00 in   Overcast
3:32 AM 26.6 °F 15.2 °F 21.2 °F 80% 29.73 in 2.0 mi WSW 13.8 mph 20.7 mph 0.00 in Snow Light Snow
3:56 AM 25.0 °F 14.2 °F 21.0 °F 85% 29.80 in 2.0 mi West 11.5 mph - 0.00 in Snow Light Snow
4:26 AM 24.8 °F 16.1 °F 21.2 °F 86% 29.73 in 1.8 mi WSW 8.1 mph 16.1 mph 0.00 in Snow Light Snow
4:34 AM 24.8 °F 15.3 °F 19.4 °F 80% 29.73 in 2.0 mi WSW 9.2 mph 18.4 mph 0.00 in Snow Light Snow
4:56 AM 24.1 °F 14.4 °F 19.9 °F 84% 29.79 in 2.0 mi WSW 9.2 mph - 0.00 in Snow Light Snow
5:08 AM 24.8 °F 16.9 °F 19.4 °F 80% 29.72 in 2.5 mi WSW 6.9 mph - 0.00 in Snow Light Snow
5:18 AM 24.8 °F 16.9 °F 19.4 °F 80% 29.72 in 4.0 mi West 6.9 mph - 0.00 in Snow Light Snow
5:39 AM 23.0 °F 13.1 °F 19.4 °F 86% 29.72 in 2.5 mi West 9.2 mph - 0.00 in Snow Light Snow
5:56 AM 21.9 °F 9.8 °F 18.0 °F 85% 29.81 in 2.0 mi West 12.7 mph - 0.00 in Snow Light Snow
6:08 AM 21.2 °F 11.7 °F 17.6 °F 86% 29.73 in 2.5 mi West 8.1 mph - 0.00 in Snow Light Snow
6:23 AM 21.2 °F 10.9 °F 17.6 °F 86% 29.73 in 1.8 mi WNW 9.2 mph - 0.00 in Snow Light Snow
6:36 AM 19.4 °F 7.9 °F 15.8 °F 86% 29.73 in 1.2 mi NW 10.4 mph - 0.00 in Snow Light Snow
6:53 AM 19.4 °F 6.6 °F 14.0 °F 80% 29.73 in 2.0 mi WNW 12.7 mph - 0.00 in Snow Light Snow
6:56 AM 19.0 °F 4.5 °F 14.0 °F 81% 29.82 in 2.5 mi WNW 16.1 mph - 0.00 in Snow Light Snow
7:07 AM 19.4 °F 5.5 °F 14.0 °F 80% 29.74 in 2.5 mi WNW 15.0 mph 21.9 mph 0.00 in Snow Light Snow
7:16 AM 19.4 °F 4.1 °F 12.2 °F 74% 29.74 in 6.0 mi West 18.4 mph - 0.00 in Snow Light Snow
7:34 AM 17.6 °F 3.7 °F 12.2 °F 79% 29.74 in 2.5 mi West 13.8 mph - 0.00 in Snow Light Snow
7:56 AM 18.0 °F 5.4 °F 12.9 °F 81% 29.83 in 1.0 mi West 11.5 mph - 0.00 in Snow Light Snow
8:06 AM 17.6 °F 2.2 °F 12.2 °F 79% 29.75 in 0.5 mi West 17.3 mph 21.9 mph 0.00 in Snow Snow
8:16 AM 15.8 °F 0.3 °F 8.6 °F 73% 29.75 in 2.0 mi West 16.1 mph 24.2 mph 0.00 in Snow Light Snow
8:27 AM 15.8 °F 2.1 °F 8.6 °F 73% 29.76 in 2.5 mi West 12.7 mph 23.0 mph 0.00 in Snow Light Snow
8:38 AM 15.8 °F 2.1 °F 10.4 °F 79% 29.77 in 1.5 mi West 12.7 mph - 0.00 in Snow Light Snow
8:54 AM 15.8 °F 2.7 °F 8.6 °F 73% 29.77 in 2.5 mi West 11.5 mph - 0.00 in Snow Light Snow
8:56 AM 15.1 °F 2.5 °F 9.0 °F 77% 29.87 in 2.5 mi West 10.4 mph - 0.00 in Snow Light Snow
9:10 AM 15.8 °F 2.7 °F 8.6 °F 73% 29.78 in 1.8 mi West 11.5 mph - 0.00 in Snow Light Snow
9:32 AM 14.0 °F -0.2 °F 8.6 °F 79% 29.79 in 0.8 mi West 12.7 mph - 0.00 in Snow Light Snow
9:52 AM 12.2 °F -1.8 °F 6.8 °F 79% 29.79 in 1.0 mi WSW 11.5 mph - 0.00 in Snow Light Snow
9:56 AM 12.9 °F -1.6 °F 7.0 °F 77% 29.89 in 1.2 mi West 12.7 mph - 0.00 in Snow Light Snow
10:08 AM 12.2 °F -1.0 °F 6.8 °F 79% 29.80 in 1.8 mi West 10.4 mph - 0.00 in Snow Light Snow
10:40 AM 12.2 °F -0.2 °F 6.8 °F 79% 29.80 in 2.5 mi WSW 9.2 mph - 0.00 in Snow Light Snow
10:56 AM 12.9 °F -0.2 °F 6.1 °F 74% 29.90 in 3.0 mi West 10.4 mph - 0.00 in Snow Light Snow
11:20 AM 12.2 °F -1.8 °F 5.0 °F 73% 29.80 in 2.5 mi West 11.5 mph - 0.00 in Snow Light Snow
11:44 AM 12.2 °F 0.7 °F 6.8 °F 79% 29.79 in 1.8 mi West 8.1 mph - 0.00 in Snow Light Snow
11:56 AM 14.0 °F 1.2 °F 7.0 °F 74% 29.88 in 1.8 mi West 10.4 mph - 0.00 in Snow Light Snow
12:05 PM 14.0 °F 0.5 °F 6.8 °F 73% 29.78 in 2.5 mi West 11.5 mph - 0.00 in Snow Light Snow
12:12 PM 14.0 °F -0.8 °F 6.8 °F 73% 29.78 in 4.0 mi West 13.8 mph - 0.00 in Snow Light Snow
12:37 PM 14.0 °F 0.5 °F 6.8 °F 73% 29.77 in 2.5 mi West 11.5 mph - 0.00 in Snow Light Snow
12:56 PM 15.1 °F 1.1 °F 7.0 °F 70% 29.86 in 2.0 mi West 12.7 mph - 0.00 in Snow Light Snow
1:45 PM 15.8 °F 0.9 °F 6.8 °F 68% 29.76 in 3.0 mi WNW 15.0 mph 20.7 mph 0.00 in Snow Light Snow
1:56 PM 16.0 °F 1.7 °F 7.0 °F 68% 29.86 in 3.0 mi West 13.8 mph - 0.00 in Snow Light Snow
2:56 PM 16.0 °F 2.3 °F 7.0 °F 68% 29.88 in 9.0 mi NW 12.7 mph - 0.00 in   Overcast
3:56 PM 15.1 °F 1.8 °F 7.0 °F 70% 29.90 in 9.0 mi WNW 11.5 mph 20.7 mph 0.00 in Snow Light Snow
4:20 PM 15.8 °F 4.2 °F 6.8 °F 68% 29.80 in 2.5 mi West 9.2 mph - 0.00 in Snow Light Snow
4:47 PM 14.0 °F 2.0 °F 6.8 °F 73% 29.80 in 3.0 mi WNW 9.2 mph - 0.00 in Snow Light Snow
4:56 PM 14.0 °F 2.9 °F 7.0 °F 74% 29.91 in 3.0 mi West 8.1 mph - 0.00 in Snow Light Snow
5:08 PM 14.0 °F 2.0 °F 6.8 °F 73% 29.80 in 4.0 mi West 9.2 mph - 0.00 in Snow Light Snow
5:56 PM 14.0 °F 2.0 °F 6.1 °F 71% 29.92 in 10.0 mi West 9.2 mph - 0.00 in   Overcast
6:56 PM 14.0 °F 3.9 °F 7.0 °F 74% 29.91 in 10.0 mi West 6.9 mph - N/A   Overcast
7:56 PM 14.0 °F 2.9 °F 7.0 °F 74% 29.90 in 10.0 mi WNW 8.1 mph - N/A   Overcast
8:33 PM 12.2 °F 4.3 °F 6.8 °F 79% 29.79 in 10.0 mi West 4.6 mph - N/A   Overcast
8:56 PM 12.9 °F 0.7 °F 6.1 °F 74% 29.91 in 10.0 mi West 9.2 mph - N/A   Overcast
9:56 PM 12.9 °F 2.6 °F 6.1 °F 74% 29.90 in 10.0 mi West 6.9 mph - N/A   Overcast
10:56 PM 12.0 °F 4.1 °F 5.0 °F 73% 29.89 in 10.0 mi WSW 4.6 mph - N/A   Mostly Cloudy
11:56 PM 10.0 °F 0.4 °F 5.0 °F 80% 29.87 in 10.0 mi SW 5.8 mph - N/A   Overcast